Time,TemperatureF,DewpointF,PressureIn,WindDirection,WindDirectionDegrees,WindSpeedMPH,WindSpeedGustMPH,Humidity,HourlyPrecipIn,Conditions,Clouds,dailyrainin,SoftwareType,DateUTC
2013-07-01 00:01:00,78.6,76.8,29.87,South,176,4.0,11.0,94,0.00,,,1.50,meteohub,2013-07-01 04:01:00,
2013-07-01 00:06:00,78.6,76.8,29.86,WSW,238,0.0,11.0,94,0.00,,,1.50,meteohub,2013-07-01 04:06:00,
2013-07-01 00:11:00,78.6,76.8,29.87,West,267,1.0,13.0,94,0.00,,,1.50,meteohub,2013-07-01 04:11:00,
2013-07-01 00:16:00,78.6,76.8,29.87,SSW,196,7.0,13.0,94,0.00,,,1.50,meteohub,2013-07-01 04:16:00,
2013-07-01 00:21:00,78.6,76.8,29.87,SW,229,8.0,13.0,94,0.00,,,0.00,meteohub,2013-07-01 04:21:00,
2013-07-01 00:26:00,78.6,76.8,29.88,SW,216,2.0,12.0,94,0.00,,,0.00,meteohub,2013-07-01 04:26:00,
2013-07-01 00:31:00,78.6,76.8,29.88,South,188,5.0,12.0,94,0.00,,,0.00,meteohub,2013-07-01 04:31:00,
2013-07-01 00:36:00,78.6,76.8,29.87,South,171,2.0,12.0,94,0.00,,,0.00,meteohub,2013-07-01 04:36:00,
2013-07-01 00:41:00,78.6,76.8,29.87,SSE,163,12.0,12.0,94,0.00,,,0.00,meteohub,2013-07-01 04:41:00,
2013-07-01 00:46:00,78.6,76.8,29.87,WNW,294,0.0,13.0,94,0.00,,,0.00,meteohub,2013-07-01 04:46:00,
2013-07-01 00:51:00,78.6,76.8,29.87,WNW,289,0.0,13.0,94,0.00,,,0.00,meteohub,2013-07-01 04:51:00,
2013-07-01 00:56:00,78.6,76.8,29.86,SSE,158,2.0,13.0,94,0.00,,,0.00,meteohub,2013-07-01 04:56:00,
2013-07-01 01:01:00,78.6,76.8,29.87,SSW,209,6.0,13.0,94,0.00,,,0.00,meteohub,2013-07-01 05:01:00,
2013-07-01 01:06:00,78.6,76.8,29.87,SSW,212,5.0,13.0,94,0.00,,,0.00,meteohub,2013-07-01 05:06:00,
2013-07-01 01:11:00,78.4,76.6,29.87,SSW,196,4.0,13.0,94,0.00,,,0.00,meteohub,2013-07-01 05:11:00,
2013-07-01 01:16:00,78.4,76.6,29.87,SW,235,0.0,12.0,94,0.00,,,0.00,meteohub,2013-07-01 05:16:00,
2013-07-01 01:21:00,78.4,76.6,29.87,East,97,5.0,12.0,94,0.00,,,0.00,meteohub,2013-07-01 05:21:00,
2013-07-01 01:26:00,78.4,76.6,29.87,SW,224,3.0,12.0,94,0.00,,,0.00,meteohub,2013-07-01 05:26:00,
2013-07-01 01:31:00,78.4,76.6,29.87,SSE,163,0.0,13.0,94,0.00,,,0.00,meteohub,2013-07-01 05:31:00,
2013-07-01 01:36:00,78.4,76.6,29.87,SSW,194,0.0,13.0,94,0.00,,,0.00,meteohub,2013-07-01 05:36:00,
2013-07-01 01:41:00,78.4,76.6,29.87,SW,228,1.0,13.0,94,0.00,,,0.00,meteohub,2013-07-01 05:41:00,
2013-07-01 01:46:00,78.3,76.5,29.87,SSE,158,4.0,10.0,94,0.00,,,0.00,meteohub,2013-07-01 05:46:00,
2013-07-01 01:51:00,78.3,76.5,29.86,SSW,209,7.0,10.0,94,0.00,,,0.00,meteohub,2013-07-01 05:51:00,
2013-07-01 01:56:00,78.3,76.5,29.86,SSE,149,0.0,10.0,94,0.00,,,0.00,meteohub,2013-07-01 05:56:00,
2013-07-01 02:01:00,78.3,76.1,29.86,SSW,199,4.0,11.0,93,0.00,,,0.00,meteohub,2013-07-01 06:01:00,
2013-07-01 02:06:00,78.1,75.9,29.87,SSW,194,8.0,11.0,93,0.00,,,0.00,meteohub,2013-07-01 06:06:00,
2013-07-01 02:11:00,78.1,75.6,29.87,SSW,212,8.0,11.0,92,0.00,,,0.00,meteohub,2013-07-01 06:11:00,
2013-07-01 02:16:00,78.1,75.6,29.87,SW,232,0.0,11.0,92,0.00,,,0.00,meteohub,2013-07-01 06:16:00,
2013-07-01 02:21:00,78.1,75.6,29.87,SW,223,3.0,14.0,92,0.00,,,0.00,meteohub,2013-07-01 06:21:00,
2013-07-01 02:26:00,78.1,75.6,29.87,West,281,6.0,14.0,92,0.00,,,0.00,meteohub,2013-07-01 06:26:00,
2013-07-01 02:31:00,78.1,75.6,29.87,SSW,207,2.0,14.0,92,0.00,,,0.00,meteohub,2013-07-01 06:31:00,
2013-07-01 02:36:00,78.1,75.6,29.87,SW,218,3.0,9.0,92,0.00,,,0.00,meteohub,2013-07-01 06:36:00,
2013-07-01 02:41:00,78.1,75.6,29.86,WNW,296,4.0,9.0,92,0.00,,,0.00,meteohub,2013-07-01 06:41:00,
2013-07-01 02:46:00,77.9,75.0,29.86,SW,229,0.0,9.0,91,0.00,,,0.00,meteohub,2013-07-01 06:46:00,
2013-07-01 02:51:00,77.9,75.0,29.86,WSW,251,4.0,9.0,91,0.00,,,0.00,meteohub,2013-07-01 06:51:00,
2013-07-01 02:56:00,78.1,74.8,29.86,SW,223,4.0,9.0,90,0.00,,,0.00,meteohub,2013-07-01 06:56:00,
2013-07-01 03:01:00,78.1,74.8,29.86,WSW,247,4.0,9.0,90,0.00,,,0.00,meteohub,2013-07-01 07:01:00,
2013-07-01 03:06:00,78.1,74.8,29.86,WSW,241,0.0,11.0,90,0.00,,,0.00,meteohub,2013-07-01 07:06:00,
2013-07-01 03:11:00,78.3,75.0,29.86,WSW,241,5.0,11.0,90,0.00,,,0.00,meteohub,2013-07-01 07:11:00,
2013-07-01 03:16:00,78.3,75.0,29.86,West,268,2.0,11.0,90,0.00,,,0.00,meteohub,2013-07-01 07:16:00,
2013-07-01 03:21:00,78.3,75.0,29.86,West,261,5.0,11.0,90,0.00,,,0.00,meteohub,2013-07-01 07:21:00,
2013-07-01 03:26:00,78.3,74.7,29.86,SW,236,1.0,11.0,89,0.00,,,0.00,meteohub,2013-07-01 07:26:00,
2013-07-01 03:31:00,78.3,74.7,29.86,SW,215,5.0,11.0,89,0.00,,,0.00,meteohub,2013-07-01 07:31:00,
2013-07-01 03:37:00,78.3,74.7,29.86,South,186,6.0,13.0,89,0.00,,,0.00,meteohub,2013-07-01 07:37:00,
2013-07-01 03:42:00,78.3,74.7,29.86,South,188,3.0,13.0,89,0.00,,,0.00,meteohub,2013-07-01 07:42:00,
2013-07-01 03:47:00,78.1,74.8,29.86,WSW,254,4.0,13.0,90,0.00,,,0.00,meteohub,2013-07-01 07:47:00,
2013-07-01 03:51:00,78.1,74.8,29.86,SSW,209,0.0,10.0,90,0.00,,,0.00,meteohub,2013-07-01 07:51:00,
2013-07-01 03:56:00,78.1,74.8,29.86,SW,214,2.0,10.0,90,0.00,,,0.00,meteohub,2013-07-01 07:56:00,
2013-07-01 04:02:00,78.1,74.8,29.86,SW,235,2.0,10.0,90,0.00,,,0.00,meteohub,2013-07-01 08:02:00,
2013-07-01 04:07:00,77.9,74.7,29.86,WSW,257,1.0,9.0,90,0.00,,,0.00,meteohub,2013-07-01 08:07:00,
2013-07-01 04:11:00,77.9,74.7,29.86,SSW,211,2.0,9.0,90,0.00,,,0.00,meteohub,2013-07-01 08:11:00,
2013-07-01 04:17:00,77.9,74.7,29.86,SSW,202,0.0,9.0,90,0.00,,,0.00,meteohub,2013-07-01 08:17:00,
2013-07-01 04:22:00,78.1,74.8,29.86,SW,227,5.0,8.0,90,0.00,,,0.00,meteohub,2013-07-01 08:22:00,
2013-07-01 04:27:00,78.1,74.8,29.87,WSW,250,2.0,8.0,90,0.00,,,0.00,meteohub,2013-07-01 08:27:00,
2013-07-01 04:32:00,78.1,74.8,29.87,South,186,6.0,8.0,90,0.00,,,0.00,meteohub,2013-07-01 08:32:00,
2013-07-01 04:37:00,78.1,75.2,29.87,SSW,205,0.0,9.0,91,0.00,,,0.00,meteohub,2013-07-01 08:37:00,
2013-07-01 04:42:00,77.9,75.0,29.87,SW,231,4.0,9.0,91,0.00,,,0.00,meteohub,2013-07-01 08:42:00,
2013-07-01 04:47:00,77.9,75.0,29.87,South,187,1.0,9.0,91,0.00,,,0.00,meteohub,2013-07-01 08:47:00,
2013-07-01 04:52:00,77.7,74.8,29.87,SE,144,1.0,7.0,91,0.00,,,0.00,meteohub,2013-07-01 08:52:00,
2013-07-01 04:57:00,77.7,75.2,29.87,SW,236,0.0,7.0,92,0.00,,,0.00,meteohub,2013-07-01 08:57:00,
2013-07-01 05:02:00,77.7,75.2,29.88,SW,224,3.0,7.0,92,0.00,,,0.00,meteohub,2013-07-01 09:02:00,
2013-07-01 05:07:00,77.7,75.2,29.88,SW,231,0.0,7.0,92,0.00,,,0.00,meteohub,2013-07-01 09:07:00,
2013-07-01 05:12:00,77.9,75.4,29.88,South,185,0.0,8.0,92,0.00,,,0.00,meteohub,2013-07-01 09:12:00,
2013-07-01 05:17:00,78.1,75.6,29.88,ENE,57,0.0,8.0,92,0.00,,,0.00,meteohub,2013-07-01 09:17:00,
2013-07-01 05:22:00,78.1,75.6,29.88,SW,215,4.0,8.0,92,0.00,,,0.00,meteohub,2013-07-01 09:22:00,
2013-07-01 05:27:00,78.1,75.6,29.88,SSW,207,3.0,8.0,92,0.00,,,0.00,meteohub,2013-07-01 09:27:00,
2013-07-01 05:32:00,78.1,75.6,29.88,SSW,201,2.0,9.0,92,0.00,,,0.00,meteohub,2013-07-01 09:32:00,
2013-07-01 05:37:00,78.1,75.6,29.89,West,259,2.0,9.0,92,0.00,,,0.00,meteohub,2013-07-01 09:37:00,
2013-07-01 05:42:00,78.1,75.6,29.89,SSW,192,2.0,9.0,92,0.00,,,0.00,meteohub,2013-07-01 09:42:00,
2013-07-01 05:47:00,78.3,75.4,29.89,WSW,246,1.0,9.0,91,0.00,,,0.00,meteohub,2013-07-01 09:47:00,
2013-07-01 05:52:00,78.3,75.4,29.89,SSW,209,5.0,12.0,91,0.00,,,0.00,meteohub,2013-07-01 09:52:00,
2013-07-01 05:57:00,78.3,75.7,29.90,SSW,205,2.0,12.0,92,0.00,,,0.00,meteohub,2013-07-01 09:57:00,
2013-07-01 06:02:00,78.3,75.7,29.90,WNW,298,1.0,12.0,92,0.00,,,0.00,meteohub,2013-07-01 10:02:00,
2013-07-01 06:07:00,78.1,75.6,29.89,SW,223,3.0,12.0,92,0.00,,,0.00,meteohub,2013-07-01 10:07:00,
2013-07-01 06:12:00,78.1,75.6,29.89,SSW,198,4.0,9.0,92,0.00,,,0.00,meteohub,2013-07-01 10:12:00,
2013-07-01 06:17:00,78.3,75.7,29.89,SW,236,2.0,9.0,92,0.00,,,0.00,meteohub,2013-07-01 10:17:00,
2013-07-01 06:22:00,78.3,75.4,29.90,SSW,212,2.0,9.0,91,0.00,,,0.00,meteohub,2013-07-01 10:22:00,
2013-07-01 06:27:00,78.4,75.6,29.90,SW,232,2.0,9.0,91,0.00,,,0.00,meteohub,2013-07-01 10:27:00,
2013-07-01 06:32:00,78.4,75.6,29.90,SSW,195,0.0,9.0,91,0.00,,,0.00,meteohub,2013-07-01 10:32:00,
2013-07-01 06:37:00,78.6,75.7,29.90,SW,215,2.0,9.0,91,0.00,,,0.00,meteohub,2013-07-01 10:37:00,
2013-07-01 06:42:00,79.0,76.1,29.91,SW,216,5.0,6.0,91,0.00,,,0.00,meteohub,2013-07-01 10:42:00,
2013-07-01 06:47:00,77.0,72.9,29.91,WNW,282,12.0,12.0,87,0.00,,,0.00,meteohub,2013-07-01 10:47:00,
2013-07-01 06:52:00,74.8,72.3,29.92,West,259,6.0,6.0,92,0.00,,,0.00,meteohub,2013-07-01 10:52:00,
2013-07-01 06:57:00,74.1,72.3,29.92,West,273,8.0,8.0,94,0.00,,,0.00,meteohub,2013-07-01 10:57:00,
2013-07-01 07:02:00,73.9,72.1,29.92,West,267,5.0,6.0,94,0.00,,,0.00,meteohub,2013-07-01 11:02:00,
2013-07-01 07:07:00,73.9,72.5,29.92,West,270,5.0,6.0,95,0.00,,,0.00,meteohub,2013-07-01 11:07:00,
2013-07-01 07:12:00,73.8,72.3,29.92,SW,215,5.0,6.0,95,0.00,,,0.07,meteohub,2013-07-01 11:12:00,
2013-07-01 07:17:00,73.6,72.1,29.93,SSW,194,7.0,13.0,95,0.11,,,0.07,meteohub,2013-07-01 11:17:00,
2013-07-01 07:22:00,73.6,72.1,29.93,West,261,3.0,13.0,95,0.11,,,0.07,meteohub,2013-07-01 11:22:00,
2013-07-01 07:27:00,73.4,72.0,29.93,SW,231,10.0,13.0,95,0.11,,,0.07,meteohub,2013-07-01 11:27:00,
2013-07-01 07:32:00,73.2,71.8,29.94,WSW,248,3.0,13.0,95,0.11,,,0.07,meteohub,2013-07-01 11:32:00,
2013-07-01 07:37:00,73.2,72.0,29.94,SW,231,6.0,13.0,96,0.11,,,0.19,meteohub,2013-07-01 11:37:00,
2013-07-01 07:42:00,73.2,72.0,29.94,WSW,237,4.0,15.0,96,0.25,,,0.19,meteohub,2013-07-01 11:42:00,
2013-07-01 07:47:00,73.2,72.0,29.94,WSW,253,1.0,15.0,96,0.25,,,0.19,meteohub,2013-07-01 11:47:00,
2013-07-01 07:52:00,73.2,72.0,29.94,SW,222,5.0,15.0,96,0.25,,,0.19,meteohub,2013-07-01 11:52:00,
2013-07-01 07:57:00,73.2,72.0,29.93,WSW,248,1.0,11.0,96,0.22,,,0.27,meteohub,2013-07-01 11:57:00,
2013-07-01 08:02:00,73.4,72.1,29.94,WSW,240,1.0,11.0,96,0.22,,,0.27,meteohub,2013-07-01 12:02:00,
2013-07-01 08:07:00,73.6,72.3,29.94,SW,235,1.0,11.0,96,0.22,,,0.27,meteohub,2013-07-01 12:07:00,
2013-07-01 08:12:00,73.6,72.3,29.94,SW,218,4.0,10.0,96,0.22,,,0.30,meteohub,2013-07-01 12:12:00,
2013-07-01 08:17:00,73.6,72.3,29.94,WSW,247,3.0,10.0,96,0.22,,,0.30,meteohub,2013-07-01 12:17:00,
2013-07-01 08:22:00,73.6,72.3,29.94,West,267,3.0,10.0,96,0.22,,,0.30,meteohub,2013-07-01 12:22:00,
2013-07-01 08:27:00,73.6,72.3,29.93,West,261,1.0,7.0,96,0.18,,,0.34,meteohub,2013-07-01 12:27:00,
2013-07-01 08:32:00,73.6,72.3,29.93,WNW,283,2.0,7.0,96,0.18,,,0.34,meteohub,2013-07-01 12:32:00,
2013-07-01 08:37:00,73.6,72.3,29.93,SSW,205,4.0,7.0,96,0.18,,,0.34,meteohub,2013-07-01 12:37:00,
2013-07-01 08:42:00,73.8,72.5,29.93,South,187,0.0,9.0,96,0.13,,,0.37,meteohub,2013-07-01 12:42:00,
2013-07-01 08:47:00,73.8,72.5,29.93,SW,219,0.0,9.0,96,0.13,,,0.37,meteohub,2013-07-01 12:47:00,
2013-07-01 08:52:00,73.9,72.7,29.93,SSW,192,0.0,9.0,96,0.13,,,0.37,meteohub,2013-07-01 12:52:00,
2013-07-01 08:57:00,74.1,72.9,29.93,WSW,238,1.0,3.0,96,0.10,,,0.38,meteohub,2013-07-01 12:57:00,
2013-07-01 09:02:00,74.8,73.6,29.93,WSW,254,1.0,3.0,96,0.10,,,0.38,meteohub,2013-07-01 13:02:00,
2013-07-01 09:07:00,75.4,74.1,29.93,SSW,213,0.0,3.0,96,0.10,,,0.38,meteohub,2013-07-01 13:07:00,
2013-07-01 09:12:00,75.7,74.5,29.93,SSW,198,6.0,6.0,96,0.07,,,0.38,meteohub,2013-07-01 13:12:00,
2013-07-01 09:17:00,75.9,74.3,29.93,SSW,192,0.0,5.0,95,0.07,,,0.38,meteohub,2013-07-01 13:17:00,
2013-07-01 09:22:00,76.3,74.5,29.93,WSW,255,4.0,5.0,94,0.07,,,0.38,meteohub,2013-07-01 13:22:00,
2013-07-01 09:27:00,76.5,74.7,29.93,SSW,209,0.0,8.0,94,0.02,,,0.38,meteohub,2013-07-01 13:27:00,
2013-07-01 09:32:00,76.5,74.7,29.93,South,180,2.0,8.0,94,0.02,,,0.38,meteohub,2013-07-01 13:32:00,
2013-07-01 09:37:00,76.5,74.7,29.94,WSW,250,0.0,8.0,94,0.02,,,0.38,meteohub,2013-07-01 13:37:00,
2013-07-01 09:42:00,76.5,74.7,29.94,SSW,209,3.0,9.0,94,0.01,,,0.38,meteohub,2013-07-01 13:42:00,
2013-07-01 09:47:00,76.3,74.5,29.94,SSW,200,3.0,9.0,94,0.01,,,0.38,meteohub,2013-07-01 13:47:00,
2013-07-01 09:52:00,76.1,74.3,29.94,WSW,243,10.0,10.0,94,0.01,,,0.38,meteohub,2013-07-01 13:52:00,
2013-07-01 09:57:00,75.7,73.9,29.95,SSW,210,4.0,12.0,94,0.03,,,0.39,meteohub,2013-07-01 13:57:00,
2013-07-01 10:02:00,75.7,73.9,29.95,SW,223,5.0,12.0,94,0.03,,,0.39,meteohub,2013-07-01 14:02:00,
2013-07-01 10:07:00,75.4,73.6,29.95,SW,226,1.0,12.0,94,0.03,,,0.43,meteohub,2013-07-01 14:07:00,
2013-07-01 10:12:00,75.2,73.6,29.95,SSW,206,2.0,11.0,95,0.06,,,0.43,meteohub,2013-07-01 14:12:00,
2013-07-01 10:17:00,75.0,73.4,29.95,SSW,209,0.0,11.0,95,0.06,,,0.43,meteohub,2013-07-01 14:17:00,
2013-07-01 10:22:00,75.0,73.8,29.94,SSW,208,3.0,11.0,96,0.06,,,0.43,meteohub,2013-07-01 14:22:00,
2013-07-01 10:27:00,75.0,73.8,29.94,SSW,213,0.0,7.0,96,0.08,,,0.46,meteohub,2013-07-01 14:27:00,
2013-07-01 10:32:00,75.0,73.8,29.94,South,181,2.0,7.0,96,0.08,,,0.46,meteohub,2013-07-01 14:32:00,
2013-07-01 10:37:00,75.2,73.6,29.94,SW,219,0.0,7.0,95,0.08,,,0.46,meteohub,2013-07-01 14:37:00,
2013-07-01 10:42:00,75.4,73.8,29.94,SSW,200,0.0,8.0,95,0.07,,,0.46,meteohub,2013-07-01 14:42:00,
2013-07-01 10:47:00,75.6,73.9,29.94,SSE,148,0.0,8.0,95,0.07,,,0.46,meteohub,2013-07-01 14:47:00,
2013-07-01 10:52:00,75.6,73.9,29.94,ESE,107,0.0,8.0,95,0.07,,,0.46,meteohub,2013-07-01 14:52:00,
2013-07-01 10:57:00,75.7,74.1,29.94,West,265,0.0,7.0,95,0.05,,,0.46,meteohub,2013-07-01 14:57:00,
2013-07-01 11:02:00,75.9,74.3,29.94,SW,221,0.0,7.0,95,0.05,,,0.46,meteohub,2013-07-01 15:02:00,
2013-07-01 11:07:00,76.1,74.3,29.94,SSW,210,0.0,6.0,94,0.03,,,0.46,meteohub,2013-07-01 15:07:00,
2013-07-01 11:12:00,76.1,74.3,29.94,NNE,17,0.0,6.0,94,0.03,,,0.46,meteohub,2013-07-01 15:12:00,
2013-07-01 11:17:00,76.3,74.5,29.94,SSE,150,0.0,9.0,94,0.01,,,0.46,meteohub,2013-07-01 15:17:00,
2013-07-01 11:22:00,76.5,74.7,29.94,East,101,0.0,9.0,94,0.01,,,0.46,meteohub,2013-07-01 15:22:00,
2013-07-01 11:27:00,76.6,74.8,29.94,ENE,63,0.0,9.0,94,0.00,,,0.46,meteohub,2013-07-01 15:27:00,
2013-07-01 11:32:00,76.6,74.8,29.94,ENE,71,0.0,9.0,94,0.00,,,0.46,meteohub,2013-07-01 15:32:00,
2013-07-01 11:37:00,76.6,74.8,29.94,SSW,192,3.0,5.0,94,0.00,,,0.46,meteohub,2013-07-01 15:37:00,
2013-07-01 11:43:00,76.5,74.7,29.94,ENE,62,0.0,5.0,94,0.00,,,0.46,meteohub,2013-07-01 15:43:00,
2013-07-01 11:48:00,76.5,74.7,29.94,SW,224,4.0,6.0,94,0.00,,,0.46,meteohub,2013-07-01 15:48:00,
2013-07-01 11:53:00,76.3,74.5,29.94,SSW,206,0.0,6.0,94,0.00,,,0.47,meteohub,2013-07-01 15:53:00,
2013-07-01 11:58:00,76.3,74.7,29.94,ENE,78,4.0,7.0,95,0.01,,,0.47,meteohub,2013-07-01 15:58:00,
2013-07-01 12:03:00,76.3,74.7,29.94,South,187,1.0,7.0,95,0.01,,,0.47,meteohub,2013-07-01 16:03:00,
2013-07-01 12:08:00,76.5,74.8,29.94,NNW,343,0.0,8.0,95,0.01,,,0.47,meteohub,2013-07-01 16:08:00,
2013-07-01 12:13:00,76.5,74.8,29.95,SSE,151,0.0,8.0,95,0.01,,,0.47,meteohub,2013-07-01 16:13:00,
2013-07-01 12:18:00,76.8,75.2,29.95,East,86,4.0,9.0,95,0.01,,,0.47,meteohub,2013-07-01 16:18:00,
2013-07-01 12:23:00,77.0,75.4,29.95,NNE,22,0.0,9.0,95,0.01,,,0.47,meteohub,2013-07-01 16:23:00,
2013-07-01 12:28:00,77.4,75.7,29.95,SW,227,1.0,11.0,95,0.01,,,0.47,meteohub,2013-07-01 16:28:00,
2013-07-01 12:33:00,77.5,75.7,29.96,SSW,206,4.0,11.0,94,0.01,,,0.47,meteohub,2013-07-01 16:33:00,
2013-07-01 12:38:00,77.7,75.6,29.96,South,170,1.0,11.0,93,0.01,,,0.47,meteohub,2013-07-01 16:38:00,
2013-07-01 12:43:00,77.7,75.6,29.96,NNE,33,0.0,16.0,93,0.01,,,0.47,meteohub,2013-07-01 16:43:00,
2013-07-01 12:48:00,77.5,75.4,29.96,SE,131,7.0,16.0,93,0.01,,,0.47,meteohub,2013-07-01 16:48:00,
2013-07-01 12:53:00,77.7,75.6,29.96,SSW,207,1.0,16.0,93,0.01,,,0.47,meteohub,2013-07-01 16:53:00,
2013-07-01 12:58:00,77.7,75.2,29.96,SE,137,8.0,16.0,92,0.00,,,0.47,meteohub,2013-07-01 16:58:00,
2013-07-01 13:03:00,77.7,75.6,29.95,SE,125,7.0,16.0,93,0.00,,,0.47,meteohub,2013-07-01 17:03:00,
2013-07-01 13:08:00,78.3,75.7,29.95,SSW,198,7.0,13.0,92,0.00,,,0.47,meteohub,2013-07-01 17:08:00,
2013-07-01 13:13:00,78.4,75.9,29.95,East,88,2.0,13.0,92,0.00,,,0.47,meteohub,2013-07-01 17:13:00,
2013-07-01 13:18:00,78.4,75.6,29.95,SSW,202,1.0,14.0,91,0.00,,,0.47,meteohub,2013-07-01 17:18:00,
2013-07-01 13:23:00,78.3,75.4,29.95,ENE,71,5.0,14.0,91,0.00,,,0.47,meteohub,2013-07-01 17:23:00,
2013-07-01 13:28:00,78.3,75.0,29.96,WSW,240,2.0,15.0,90,0.00,,,0.47,meteohub,2013-07-01 17:28:00,
2013-07-01 13:33:00,78.3,75.0,29.96,SSW,206,0.0,15.0,90,0.00,,,0.47,meteohub,2013-07-01 17:33:00,
2013-07-01 13:38:00,78.1,75.2,29.96,NNE,12,0.0,15.0,91,0.00,,,0.47,meteohub,2013-07-01 17:38:00,
2013-07-01 13:43:00,78.1,75.2,29.96,WSW,243,2.0,15.0,91,0.00,,,0.47,meteohub,2013-07-01 17:43:00,
2013-07-01 13:48:00,78.1,75.6,29.96,NW,306,0.0,11.0,92,0.00,,,0.47,meteohub,2013-07-01 17:48:00,
2013-07-01 13:53:00,77.7,75.2,29.96,West,277,0.0,11.0,92,0.00,,,0.47,meteohub,2013-07-01 17:53:00,
2013-07-01 13:58:00,77.7,75.2,29.96,SW,221,0.0,10.0,92,0.00,,,0.47,meteohub,2013-07-01 17:58:00,
2013-07-01 14:03:00,77.5,75.0,29.96,SW,236,3.0,10.0,92,0.00,,,0.47,meteohub,2013-07-01 18:03:00,
2013-07-01 14:08:00,77.4,75.2,29.96,NNW,338,2.0,11.0,93,0.00,,,0.47,meteohub,2013-07-01 18:08:00,
2013-07-01 14:13:00,77.2,75.0,29.96,SSW,196,5.0,11.0,93,0.00,,,0.47,meteohub,2013-07-01 18:13:00,
2013-07-01 14:18:00,76.8,74.7,29.96,NW,311,3.0,14.0,93,0.00,,,0.47,meteohub,2013-07-01 18:18:00,
2013-07-01 14:23:00,76.6,74.8,29.96,SSW,207,5.0,14.0,94,0.00,,,0.48,meteohub,2013-07-01 18:23:00,
2013-07-01 14:28:00,76.5,74.7,29.96,North,5,3.0,14.0,94,0.01,,,0.48,meteohub,2013-07-01 18:28:00,
2013-07-01 14:33:00,76.3,74.5,29.96,SW,215,0.0,14.0,94,0.01,,,0.48,meteohub,2013-07-01 18:33:00,
2013-07-01 14:38:00,76.3,74.5,29.96,West,265,6.0,13.0,94,0.01,,,0.48,meteohub,2013-07-01 18:38:00,
2013-07-01 14:43:00,76.3,74.7,29.96,SSE,166,4.0,13.0,95,0.01,,,0.49,meteohub,2013-07-01 18:43:00,
2013-07-01 14:48:00,76.3,74.7,29.96,NNE,29,0.0,12.0,95,0.02,,,0.49,meteohub,2013-07-01 18:48:00,
2013-07-01 14:53:00,76.1,74.5,29.96,WSW,246,6.0,12.0,95,0.02,,,0.50,meteohub,2013-07-01 18:53:00,
2013-07-01 14:58:00,75.9,74.3,29.96,SW,214,3.0,12.0,95,0.03,,,0.50,meteohub,2013-07-01 18:58:00,
2013-07-01 15:03:00,75.7,74.1,29.96,ENE,78,1.0,12.0,95,0.03,,,0.51,meteohub,2013-07-01 19:03:00,
2013-07-01 15:08:00,75.6,73.9,29.96,West,261,2.0,12.0,95,0.04,,,0.51,meteohub,2013-07-01 19:08:00,
2013-07-01 15:13:00,75.4,73.8,29.96,West,267,3.0,12.0,95,0.04,,,0.51,meteohub,2013-07-01 19:13:00,
2013-07-01 15:18:00,75.4,74.1,29.96,WSW,250,3.0,12.0,96,0.04,,,0.51,meteohub,2013-07-01 19:18:00,
2013-07-01 15:23:00,75.4,74.1,29.97,South,178,6.0,12.0,96,0.04,,,0.52,meteohub,2013-07-01 19:23:00,
2013-07-01 15:28:00,75.0,73.8,29.97,SSW,196,5.0,14.0,96,0.04,,,0.52,meteohub,2013-07-01 19:28:00,
2013-07-01 15:33:00,75.0,73.8,29.96,WSW,245,1.0,14.0,96,0.04,,,0.53,meteohub,2013-07-01 19:33:00,
2013-07-01 15:38:00,75.0,73.8,29.96,SSW,196,0.0,15.0,96,0.05,,,0.53,meteohub,2013-07-01 19:38:00,
2013-07-01 15:43:00,75.0,73.8,29.97,West,269,2.0,15.0,96,0.05,,,0.53,meteohub,2013-07-01 19:43:00,
2013-07-01 15:48:00,75.0,73.8,29.97,SSW,207,4.0,12.0,96,0.05,,,0.53,meteohub,2013-07-01 19:48:00,
2013-07-01 15:53:00,75.0,73.8,29.97,WSW,244,2.0,12.0,96,0.05,,,0.54,meteohub,2013-07-01 19:53:00,
2013-07-01 15:58:00,75.0,73.8,29.98,West,265,2.0,12.0,96,0.04,,,0.54,meteohub,2013-07-01 19:58:00,
2013-07-01 16:03:00,75.0,73.8,29.98,SSW,213,6.0,12.0,96,0.04,,,0.55,meteohub,2013-07-01 20:03:00,
2013-07-01 16:08:00,75.2,73.9,29.98,SSW,212,6.0,13.0,96,0.04,,,0.55,meteohub,2013-07-01 20:08:00,
2013-07-01 16:13:00,75.2,73.9,29.98,WSW,247,4.0,13.0,96,0.04,,,0.56,meteohub,2013-07-01 20:13:00,
2013-07-01 16:18:00,75.4,74.1,29.97,SSW,207,3.0,8.0,96,0.05,,,0.56,meteohub,2013-07-01 20:18:00,
2013-07-01 16:23:00,75.4,74.1,29.97,SW,215,1.0,8.0,96,0.05,,,0.56,meteohub,2013-07-01 20:23:00,
2013-07-01 16:28:00,75.6,74.3,29.98,West,277,0.0,9.0,96,0.04,,,0.56,meteohub,2013-07-01 20:28:00,
2013-07-01 16:33:00,75.6,74.3,29.98,SW,215,8.0,9.0,96,0.04,,,0.56,meteohub,2013-07-01 20:33:00,
2013-07-01 16:38:00,75.6,73.9,29.98,SSW,213,4.0,11.0,95,0.04,,,0.57,meteohub,2013-07-01 20:38:00,
2013-07-01 16:43:00,75.6,73.9,29.98,WSW,237,3.0,11.0,95,0.04,,,0.57,meteohub,2013-07-01 20:43:00,
2013-07-01 16:48:00,75.4,73.8,29.98,South,184,4.0,11.0,95,0.03,,,0.57,meteohub,2013-07-01 20:48:00,
2013-07-01 16:53:00,75.0,73.4,29.98,SSW,195,0.0,11.0,95,0.03,,,0.57,meteohub,2013-07-01 20:53:00,
2013-07-01 16:58:00,75.0,73.4,29.97,SW,225,0.0,11.0,95,0.03,,,0.57,meteohub,2013-07-01 20:58:00,
2013-07-01 17:04:00,74.8,73.2,29.98,SSW,204,3.0,11.0,95,0.03,,,0.57,meteohub,2013-07-01 21:04:00,
2013-07-01 17:09:00,74.8,73.2,29.97,SSW,201,3.0,11.0,95,0.02,,,0.57,meteohub,2013-07-01 21:09:00,
2013-07-01 17:14:00,74.8,73.2,29.97,SE,142,5.0,12.0,95,0.01,,,0.57,meteohub,2013-07-01 21:14:00,
2013-07-01 17:19:00,74.8,73.2,29.97,NE,38,1.0,12.0,95,0.01,,,0.57,meteohub,2013-07-01 21:19:00,
2013-07-01 17:24:00,74.8,73.2,29.97,SW,222,2.0,12.0,95,0.01,,,0.57,meteohub,2013-07-01 21:24:00,
2013-07-01 17:29:00,74.8,73.2,29.97,WNW,291,0.0,12.0,95,0.01,,,0.57,meteohub,2013-07-01 21:29:00,
2013-07-01 17:34:00,75.0,73.4,29.97,SW,229,1.0,12.0,95,0.00,,,0.57,meteohub,2013-07-01 21:34:00,
2013-07-01 17:39:00,75.2,73.9,29.97,West,273,3.0,11.0,96,0.00,,,0.57,meteohub,2013-07-01 21:39:00,
2013-07-01 17:44:00,75.4,74.1,29.97,South,190,1.0,11.0,96,0.00,,,0.57,meteohub,2013-07-01 21:44:00,
2013-07-01 17:49:00,75.4,74.1,29.97,SSW,205,7.0,10.0,96,0.00,,,0.57,meteohub,2013-07-01 21:49:00,
2013-07-01 17:54:00,75.6,74.3,29.97,SSW,193,0.0,9.0,96,0.00,,,0.57,meteohub,2013-07-01 21:54:00,
2013-07-01 17:59:00,75.6,74.3,29.97,WSW,244,1.0,9.0,96,0.00,,,0.57,meteohub,2013-07-01 21:59:00,
2013-07-01 18:04:00,75.6,74.3,29.97,WSW,257,0.0,9.0,96,0.00,,,0.57,meteohub,2013-07-01 22:04:00,
2013-07-01 18:09:00,75.7,74.5,29.98,SSW,206,4.0,10.0,96,0.01,,,0.57,meteohub,2013-07-01 22:09:00,
2013-07-01 18:14:00,75.7,74.5,29.98,SW,225,0.0,10.0,96,0.01,,,0.58,meteohub,2013-07-01 22:14:00,
2013-07-01 18:19:00,75.7,74.5,29.98,South,190,0.0,12.0,96,0.01,,,0.58,meteohub,2013-07-01 22:19:00,
2013-07-01 18:24:00,75.7,74.5,29.98,SSE,155,4.0,12.0,96,0.01,,,0.58,meteohub,2013-07-01 22:24:00,
2013-07-01 18:29:00,75.7,74.5,29.98,SSW,196,9.0,12.0,96,0.01,,,0.58,meteohub,2013-07-01 22:29:00,
2013-07-01 18:34:00,75.6,73.9,29.99,SW,233,3.0,12.0,95,0.01,,,0.58,meteohub,2013-07-01 22:34:00,
2013-07-01 18:39:00,75.6,73.9,29.99,SW,229,3.0,12.0,95,0.01,,,0.58,meteohub,2013-07-01 22:39:00,
2013-07-01 18:44:00,75.6,73.9,29.99,SSW,198,1.0,10.0,95,0.01,,,0.58,meteohub,2013-07-01 22:44:00,
2013-07-01 18:49:00,75.6,73.9,29.99,SW,225,2.0,10.0,95,0.01,,,0.58,meteohub,2013-07-01 22:49:00,
2013-07-01 18:54:00,75.4,73.8,29.99,SW,215,0.0,12.0,95,0.01,,,0.58,meteohub,2013-07-01 22:54:00,
2013-07-01 18:59:00,75.4,73.8,29.99,South,188,6.0,12.0,95,0.01,,,0.58,meteohub,2013-07-01 22:59:00,
2013-07-01 19:04:00,75.4,73.8,29.99,WSW,239,1.0,12.0,95,0.01,,,0.58,meteohub,2013-07-01 23:04:00,
2013-07-01 19:09:00,75.4,73.6,29.99,SW,222,3.0,12.0,94,0.00,,,0.58,meteohub,2013-07-01 23:09:00,
2013-07-01 19:14:00,75.4,73.6,29.99,NW,313,0.0,10.0,94,0.00,,,0.58,meteohub,2013-07-01 23:14:00,
2013-07-01 19:19:00,75.4,73.6,29.99,SSW,200,0.0,10.0,94,0.00,,,0.58,meteohub,2013-07-01 23:19:00,
2013-07-01 19:24:00,75.4,73.6,30.00,West,278,0.0,10.0,94,0.00,,,0.58,meteohub,2013-07-01 23:24:00,
2013-07-01 19:29:00,75.4,73.6,30.00,SSW,212,0.0,8.0,94,0.00,,,0.58,meteohub,2013-07-01 23:29:00,
2013-07-01 19:34:00,75.4,73.6,30.00,SSW,209,0.0,7.0,94,0.00,,,0.58,meteohub,2013-07-01 23:34:00,
2013-07-01 19:39:00,75.4,73.6,30.00,SW,220,0.0,7.0,94,0.00,,,0.58,meteohub,2013-07-01 23:39:00,
2013-07-01 19:44:00,75.4,73.6,30.00,SSW,203,3.0,7.0,94,0.00,,,0.58,meteohub,2013-07-01 23:44:00,
2013-07-01 19:49:00,75.4,73.6,30.00,SW,230,3.0,8.0,94,0.00,,,0.58,meteohub,2013-07-01 23:49:00,
2013-07-01 19:54:00,75.4,73.2,30.00,SSW,196,2.0,10.0,93,0.00,,,0.58,meteohub,2013-07-01 23:54:00,
2013-07-01 19:59:00,75.6,73.4,30.00,SW,232,4.0,10.0,93,0.00,,,0.58,meteohub,2013-07-01 23:59:00,
2013-07-01 20:04:00,75.6,73.4,30.00,South,182,0.0,10.0,93,0.00,,,0.58,meteohub,2013-07-02 00:04:00,
2013-07-01 20:09:00,75.6,73.4,30.00,SSW,205,2.0,10.0,93,0.00,,,0.58,meteohub,2013-07-02 00:09:00,
2013-07-01 20:14:00,75.6,73.8,30.00,SW,218,0.0,8.0,94,0.00,,,0.58,meteohub,2013-07-02 00:14:00,
2013-07-01 20:19:00,75.6,73.8,30.00,SW,219,1.0,9.0,94,0.00,,,0.58,meteohub,2013-07-02 00:19:00,
2013-07-01 20:24:00,75.7,73.9,30.00,SSW,202,3.0,9.0,94,0.00,,,0.58,meteohub,2013-07-02 00:24:00,
2013-07-01 20:29:00,75.7,74.1,30.00,SW,228,0.0,9.0,95,0.00,,,0.58,meteohub,2013-07-02 00:29:00,
2013-07-01 20:34:00,75.9,74.3,30.00,SW,216,0.0,8.0,95,0.00,,,0.58,meteohub,2013-07-02 00:34:00,
2013-07-01 20:39:00,75.9,74.3,30.00,WSW,254,2.0,8.0,95,0.00,,,0.58,meteohub,2013-07-02 00:39:00,
2013-07-01 20:44:00,76.1,74.5,30.01,WSW,238,2.0,8.0,95,0.00,,,0.58,meteohub,2013-07-02 00:44:00,
2013-07-01 20:49:00,76.3,74.7,30.00,West,259,0.0,10.0,95,0.00,,,0.58,meteohub,2013-07-02 00:49:00,
2013-07-01 20:54:00,76.3,74.5,30.01,SW,223,5.0,10.0,94,0.00,,,0.58,meteohub,2013-07-02 00:54:00,
2013-07-01 20:59:00,76.3,74.5,30.01,WSW,239,2.0,10.0,94,0.00,,,0.58,meteohub,2013-07-02 00:59:00,
2013-07-01 21:04:00,76.3,74.5,30.01,SSW,198,2.0,9.0,94,0.00,,,0.58,meteohub,2013-07-02 01:04:00,
2013-07-01 21:09:00,76.3,74.5,30.01,SW,223,0.0,9.0,94,0.00,,,0.58,meteohub,2013-07-02 01:09:00,
2013-07-01 21:14:00,76.3,74.5,30.01,SSW,211,1.0,9.0,94,0.00,,,0.58,meteohub,2013-07-02 01:14:00,
2013-07-01 21:19:00,76.3,74.5,30.02,WSW,239,0.0,10.0,94,0.00,,,0.58,meteohub,2013-07-02 01:19:00,
2013-07-01 21:24:00,76.5,74.7,30.02,West,271,2.0,10.0,94,0.00,,,0.58,meteohub,2013-07-02 01:24:00,
2013-07-01 21:29:00,76.5,74.3,30.02,SW,234,5.0,10.0,93,0.00,,,0.58,meteohub,2013-07-02 01:29:00,
2013-07-01 21:34:00,76.5,74.3,30.03,SW,220,0.0,9.0,93,0.00,,,0.58,meteohub,2013-07-02 01:34:00,
2013-07-01 21:39:00,76.5,74.3,30.03,South,188,6.0,9.0,93,0.00,,,0.58,meteohub,2013-07-02 01:39:00,
2013-07-01 21:44:00,76.5,74.3,30.03,West,277,2.0,8.0,93,0.00,,,0.58,meteohub,2013-07-02 01:44:00,
2013-07-01 21:49:00,76.5,74.3,30.03,South,171,11.0,11.0,93,0.00,,,0.58,meteohub,2013-07-02 01:49:00,
2013-07-01 21:54:00,76.5,74.3,30.04,WNW,289,4.0,11.0,93,0.00,,,0.58,meteohub,2013-07-02 01:54:00,
2013-07-01 21:59:00,76.5,74.3,30.04,WSW,257,3.0,11.0,93,0.00,,,0.58,meteohub,2013-07-02 01:59:00,
2013-07-01 22:04:00,76.5,74.3,30.04,SW,220,3.0,11.0,93,0.00,,,0.58,meteohub,2013-07-02 02:04:00,
2013-07-01 22:09:00,76.5,74.3,30.04,SSW,203,2.0,11.0,93,0.00,,,0.58,meteohub,2013-07-02 02:09:00,
2013-07-01 22:14:00,76.3,74.1,30.04,SSW,212,3.0,10.0,93,0.00,,,0.58,meteohub,2013-07-02 02:14:00,
2013-07-01 22:19:00,76.3,74.1,30.04,SW,227,0.0,10.0,93,0.01,,,0.58,meteohub,2013-07-02 02:19:00,
2013-07-01 22:24:00,76.3,74.1,30.04,SW,235,3.0,10.0,93,0.01,,,0.59,meteohub,2013-07-02 02:24:00,
2013-07-01 22:29:00,76.1,73.9,30.04,SW,217,0.0,9.0,93,0.01,,,0.59,meteohub,2013-07-02 02:29:00,
2013-07-01 22:34:00,76.1,73.9,30.04,WSW,246,2.0,9.0,93,0.01,,,0.59,meteohub,2013-07-02 02:34:00,
2013-07-01 22:39:00,76.1,74.3,30.04,SSW,210,0.0,9.0,94,0.01,,,0.59,meteohub,2013-07-02 02:39:00,
2013-07-01 22:44:00,75.9,74.1,30.04,SW,218,6.0,8.0,94,0.01,,,0.59,meteohub,2013-07-02 02:44:00,
2013-07-01 22:49:00,75.9,73.8,30.04,West,259,3.0,10.0,93,0.01,,,0.59,meteohub,2013-07-02 02:49:00,
2013-07-01 22:54:00,75.9,73.8,30.05,WSW,253,4.0,10.0,93,0.01,,,0.59,meteohub,2013-07-02 02:54:00,
2013-07-01 22:59:00,75.9,73.4,30.05,SW,219,4.0,10.0,92,0.01,,,0.59,meteohub,2013-07-02 02:59:00,
2013-07-01 23:04:00,76.1,73.6,30.05,South,181,5.0,11.0,92,0.01,,,0.59,meteohub,2013-07-02 03:04:00,
2013-07-01 23:09:00,75.9,73.4,30.05,SSW,211,2.0,11.0,92,0.01,,,0.59,meteohub,2013-07-02 03:09:00,
2013-07-01 23:14:00,75.9,73.4,30.06,SW,214,5.0,11.0,92,0.01,,,0.59,meteohub,2013-07-02 03:14:00,
2013-07-01 23:19:00,75.9,73.4,30.06,SSW,198,6.0,10.0,92,0.00,,,0.59,meteohub,2013-07-02 03:19:00,
2013-07-01 23:24:00,75.9,73.8,30.06,WSW,253,1.0,10.0,93,0.00,,,0.59,meteohub,2013-07-02 03:24:00,
2013-07-01 23:29:00,75.9,73.8,30.06,SSW,205,2.0,10.0,93,0.00,,,0.59,meteohub,2013-07-02 03:29:00,
2013-07-01 23:34:00,75.9,73.8,30.05,South,178,2.0,10.0,93,0.00,,,0.59,meteohub,2013-07-02 03:34:00,
2013-07-01 23:39:00,75.7,73.6,30.05,SW,221,6.0,10.0,93,0.00,,,0.59,meteohub,2013-07-02 03:39:00,
2013-07-01 23:47:00,75.9,73.8,30.05,WSW,258,3.0,12.0,93,0.00,,,0.59,meteohub,2013-07-02 03:47:00,
2013-07-01 23:52:00,75.7,73.6,30.05,SW,216,0.0,12.0,93,0.00,,,0.59,meteohub,2013-07-02 03:52:00,
2013-07-01 23:57:00,75.7,73.9,30.06,SW,214,3.0,8.0,94,0.02,,,0.60,meteohub,2013-07-02 03:57:00,